Powrót do katalogu

HULIANWANG DIGUI-114

AktywnyŁącznośćPO
NORAD 66953·PAYLOAD·🇨🇳 China

Wystrzelony Dec 8, 2025 z Taiyuan Satellite Launch Center

Loading…

Następne Przeloty (najbliższe 24 godziny)

TLE

ŚwieżeSource: Space-Track

Epoka: Sep 14, 2026, 23:14 UTC

1 66953U 25287A   26257.96865445  .00000012  00000-0 -61452-5 0  9999
2 66953  86.4882 252.0129 0001642  84.2377 275.8945 13.24405688 37227

Śledź HULIANWANG DIGUI-114 w czasie rzeczywistym z AllMySat

Download on the App Store